Snowfall_Accumulation
0.0 0.0 0.0 0.0 0.0 0.0 0.0 0.0 0.0 0.0 0.0 0.0 0.0 0.0 0.0 0.0 0.0 0.0 0.0 0.0 0.0 0.0 0.0 0.0 0.0 0.0 0.0 0.0 0.0 0.0 0.0 0.0 0.0 0.0 0.0 0.0 0.0 0.0 0.0 0.0 0.0 0.0 0.0 0.0 0.0 0.0 0.0
0.0 0.0 0.0 0.0 0.0 0.0 0.0 0.0 0.0 0.0 0.0 0.0 0.0 0.0 0.0 0.0 0.0 0.0 0.0 0.0 0.0 0.0 0.0 0.0 0.0 0.0 0.0 0.0 0.0 0.0 0.0 0.0 0.0 0.0 0.0 0.0 0.0 0.0 0.0 0.0 0.0 0.0 0.0 0.0 0.0 0.0 0.0
0.0 0.0 0.0 0.0 0.0 0.0 0.0 0.0 0.0 0.0 0.0 0.0 0.0 0.0 0.0 0.0 0.0 0.0 0.0 0.0 0.0 0.0 0.0 0.0 0.0 0.0 0.0 0.0 0.0 0.0 0.0 0.0 0.0 0.0 0.0 0.0 0.0 0.0 0.0 0.0 0.0 0.0 0.0 0.0 0.0 0.0 0.0
0.0 0.0 0.0 0.0 0.0 0.0 0.0 0.0 0.0 0.0 0.0 0.0 0.0 0.0 0.0 0.0 0.0 0.0 0.0 0.0 0.0 0.0 0.0 0.0 0.0 0.0 0.0 0.0 0.0 0.0 0.0 0.0 0.0 0.0 0.0 0.0 0.0 0.0 0.0 0.0 0.0 0.1 0.6 0.4 0.0 0.0 0.0
0.0 0.0 0.0 0.0 0.0 0.0 0.0 0.0 0.0 0.0 0.0 0.0 0.0 0.0 0.0 0.0 0.0 0.0 0.0 0.0 0.0 0.0 0.0 0.0 0.0 0.0 0.0 0.0 0.0 0.0 0.0 0.0 0.0 0.0 0.0 0.0 0.0 0.0 0.0 0.0 1.2 0.8 1.3 0.0 0.0 0.0 0.0
0.0 0.0 0.0 0.0 0.0 0.0 0.0 0.0 0.0 0.0 0.0 0.0 0.0 0.0 0.0 0.0 0.0 0.0 0.0 0.0 0.0 0.0 0.0 0.0 0.0 0.0 0.0 0.0 0.0 0.0 0.0 0.0 0.0 0.0 0.0 0.0 0.0 0.0 0.0 1.4 2.3 0.4 0.7 0.3 0.3 0.0 0.3
0.0 0.0 0.0 0.0 0.0 0.0 0.0 0.0 0.0 0.0 0.0 0.0 0.0 0.0 0.0 0.0 0.0 0.0 0.0 0.0 0.0 0.0 0.0 0.0 0.0 0.0 0.0 0.0 0.0 0.0 0.0 0.0 0.0 0.0 0.0 0.0 1.3 1.0 0.0 0.1 0.0 0.7 2.1 1.4 0.0 0.0 0.5
0.0 0.0 0.0 0.0 0.0 0.0 0.0 0.0 0.0 0.0 0.0 0.0 0.0 0.0 0.0 0.0 0.0 0.0 0.0 0.0 0.0 0.0 0.0 0.0 0.0 0.0 0.0 0.0 0.0 0.0 0.0 0.0 0.0 0.0 0.0 0.0 0.9 0.0 0.1 0.0 1.0 0.6 3.0 3.5 1.2 0.0 0.0
0.0 0.0 0.0 0.0 0.0 0.0 0.0 0.0 0.0 0.0 0.0 0.0 0.0 0.0 0.0 0.0 0.0 0.0 0.0 0.0 0.0 0.0 0.0 0.0 0.0 0.0 0.0 0.0 0.0 0.0 0.0 0.0 0.2 0.0 0.5 0.5 0.0 0.0 0.0 0.3 1.7 1.9 3.6 2.4 2.6 1.5 1.2
0.0 0.0 0.0 0.0 0.0 0.0 0.0 0.0 0.0 0.0 0.0 0.0 0.0 0.0 0.0 0.0 0.0 0.0 0.0 0.0 0.0 0.0 0.0 0.0 0.1 0.0 0.0 0.0 0.4 0.0 0.0 0.0 1.2 1.5 0.1 1.4 0.0 0.0 0.3 0.6 0.2 2.9 0.0 0.0 1.4 5.1 5.8
0.0 0.0 0.0 0.0 0.0 0.0 0.0 0.0 0.0 0.0 0.0 0.0 0.0 0.0 0.0 0.0 0.0 0.0 0.0 0.0 0.0 0.0 0.1 0.0 0.0 0.0 0.0 0.4 0.0 0.0 0.0 0.0 2.1 1.6 3.0 2.4 0.0 0.1 1.0 0.0 0.0 0.8 0.0 0.1 1.7 4.1 5.8
0.0 0.0 0.0 0.0 0.0 0.0 0.0 0.0 0.0 0.0 0.0 0.0 0.0 0.0 0.0 0.0 0.0 0.0 0.0 0.0 0.0 0.9 0.3 0.0 0.0 0.0 0.0 0.0 0.0 0.0 0.3 0.0 0.0 0.5 0.0 1.4 0.0 0.0 1.2 0.4 0.2 0.0 0.0 0.1 1.8 3.3 12.3
0.0 0.0 0.0 0.0 0.0 0.0 0.0 0.0 0.0 0.0 0.0 0.0 0.0 0.0 0.0 0.0 0.0 0.0 0.0 0.0 0.2 0.4 0.0 0.2 0.0 0.0 0.0 0.0 0.0 0.2 0.6 2.2 3.6 3.6 1.3 0.9 1.4 0.3 1.2 3.0 0.4 2.6 6.4 7.2 6.4 7.6 4.7
0.0 0.0 0.0 0.0 0.0 0.0 0.0 0.0 0.0 0.0 0.0 0.0 0.0 0.0 0.0 0.0 0.0 0.0 0.0 0.0 0.0 0.0 0.0 0.0 0.0 0.0 0.0 0.0 0.0 0.0 0.2 1.6 2.0 2.3 2.0 1.5 1.6 2.6 1.3 4.2 5.9 1.3 5.6 5.7 3.0 0.7 0.1
0.0 0.0 0.0 0.0 0.0 0.0 0.0 0.0 0.0 0.0 0.0 0.0 0.0 0.0 0.0 0.0 0.0 0.0 0.0 0.0 0.5 0.2 0.1 0.1 0.0 0.0 0.0 0.0 0.1 0.0 1.1 3.5 3.2 3.0 5.0 2.5 0.8 0.6 1.6 0.8 3.3 3.5 3.3 1.5 3.8 1.0 1.5
0.0 0.0 0.0 0.0 0.0 0.0 0.0 0.0 0.0 0.0 0.0 0.0 0.0 0.0 0.0 0.0 0.0 0.0 0.3 0.4 0.0 0.2 0.0 0.0 0.7 0.3 0.8 0.0 0.0 0.0 0.5 4.3 2.6 2.2 2.3 3.4 2.2 0.2 1.0 1.6 1.3 5.3 4.3 2.9 9.0 6.6 1.3
0.0 0.0 0.0 0.0 0.0 0.0 0.0 0.0 0.0 0.0 0.0 0.0 0.0 0.0 0.0 0.0 0.0 0.1 0.3 0.3 0.0 0.0 0.3 0.4 0.3 0.3 0.9 0.7 0.1 0.1 0.5 0.2 0.0 0.6 1.1 3.5 4.2 0.1 0.8 3.7 6.6 4.0 13.4 5.8 4.4 1.8 2.7
0.0 0.0 0.0 0.0 0.0 0.0 0.0 0.0 0.0 0.0 0.0 0.0 0.0 0.0 0.0 0.0 0.0 0.1 0.2 0.1 0.0 0.0 0.0 0.3 0.3 0.7 1.1 0.5 0.3 0.1 0.4 0.4 0.5 0.4 1.4 2.6 4.7 3.1 1.3 3.4 4.8 4.2 7.8 8.8 3.7 0.9 2.9
0.0 0.0 0.0 0.0 0.0 0.0 0.0 0.0 0.0 0.0 0.0 0.0 0.0 0.0 0.0 0.0 0.1 0.2 0.0 0.0 0.1 0.1 0.2 0.1 0.2 0.8 0.4 0.6 1.0 0.1 0.0 0.1 0.0 0.0 0.9 3.2 2.1 1.8 4.1 3.1 2.2 4.3 5.7 8.1 4.4 3.3 2.8
0.0 0.0 0.0 0.0 0.0 0.0 0.0 0.0 0.0 0.0 0.0 0.0 0.1 0.2 0.0 0.0 0.2 0.2 0.4 0.0 0.0 0.1 0.0 0.4 0.3 0.4 0.5 0.2 0.0 0.0 0.2 0.0 0.0 0.0 0.8 0.3 1.1 2.3 4.5 4.8 4.8 4.4 3.7 5.5 5.9 5.8 4.4
0.0 0.0 0.0 0.0 0.0 0.0 0.0 0.0 0.0 0.0 0.0 0.0 0.3 0.6 0.3 0.4 0.1 0.2 0.7 0.8 0.5 0.4 0.3 0.3 0.0 0.6 0.8 0.7 0.2 0.2 0.0 0.0 0.0 0.0 0.0 0.0 0.1 0.1 0.2 0.6 2.1 3.6 5.3 4.7 5.5 5.1 5.7
0.0 0.0 0.0 0.0 0.0 0.0 0.0 0.0 0.0 0.0 0.0 0.0 0.5 1.0 1.8 0.0 0.1 0.3 0.5 0.6 0.4 0.7 0.9 0.1 0.6 0.2 0.5 1.0 1.2 0.6 0.2 0.0 0.1 0.0 0.0 0.0 0.0 0.0 0.1 0.7 2.0 3.9 4.0 4.4 5.0 4.8 6.4
0.0 0.0 0.0 0.0 0.0 0.0 0.0 0.0 0.0 0.0 0.0 1.2 0.2 0.0 4.0 0.3 0.3 0.7 0.4 0.7 1.1 1.3 0.0 0.5 0.6 0.6 0.3 0.3 0.0 0.0 0.0 0.0 0.0 0.0 0.0 0.1 0.1 0.1 0.3 0.5 0.6 2.7 7.3 6.3 6.4 6.7 7.2
0.0 0.0 0.0 0.0 0.0 0.0 0.0 0.0 0.0 0.0 0.0 0.0 0.0 2.4 4.4 1.3 0.2 0.0 0.5 0.2 0.3 0.3 0.7 0.1 0.5 0.5 0.0 0.0 0.0 0.0 0.0 0.0 0.0 0.0 0.0 0.0 0.1 0.1 0.1 0.0 1.9 5.6 3.2 4.8 6.7 6.7 6.1
0.0 0.0 0.0 0.0 0.0 0.0 0.0 0.0 0.0 0.0 0.0 0.0 0.0 2.6 4.3 2.8 0.0 0.1 0.7 0.2 0.1 0.1 0.1 0.0 0.0 0.0 0.0 0.0 0.2 0.1 0.0 0.0 0.0 0.0 0.2 0.0 0.0 0.2 0.3 0.0 1.0 0.4 0.6 1.8 3.9 5.1 2.8
0.0 0.0 0.0 0.0 0.0 0.0 0.0 0.0 0.0 0.0 0.0 0.0 0.0 0.0 2.7 4.5 0.2 0.2 0.8 0.4 0.3 0.2 0.0 0.0 0.0 0.0 0.0 0.2 0.4 0.2 0.3 0.1 0.1 0.0 0.0 0.0 0.0 0.2 0.0 0.5 1.1 1.3 0.1 0.1 0.8 4.1 0.5
0.0 0.0 0.0 0.0 0.0 0.0 0.0 0.0 0.0 0.0 0.0 0.0 0.0 0.0 3.2 4.9 0.0 0.5 0.1 0.5 0.2 0.5 0.5 0.0 0.0 0.0 0.0 0.1 0.2 0.2 0.0 0.2 0.3 0.1 0.8 0.4 0.7 0.2 0.0 0.3 0.6 0.0 0.0 0.0 0.7 1.6 0.4
0.0 0.0 0.0 0.0 0.0 0.0 0.0 0.0 0.0 0.0 0.0 0.0 0.0 0.0 1.7 4.1 0.0 0.0 0.0 0.2 0.1 0.3 0.9 0.1 0.3 0.0 0.1 0.3 0.3 0.3 0.2 0.1 0.0 0.0 0.9 2.6 0.9 0.1 0.0 0.0 0.4 0.0 0.0 0.4 1.0 0.3 0.2
0.0 0.0 0.0 0.0 0.0 0.0 0.0 0.0 0.0 0.0 0.0 0.0 0.4 0.0 0.0 2.2 0.2 0.0 0.0 0.0 0.0 0.0 0.3 0.3 0.0 0.0 0.0 0.5 0.6 1.0 0.3 0.1 0.1 0.1 0.0 5.1 3.1 1.8 0.7 0.2 0.0 0.0 0.0 0.0 0.0 0.4 0.2